| time (UTC) | temp F | wind direction | speed knots | gust knots | rain 1hr in | rain 24hr in | rain mn in | humidity % | barometer mb |
| 20260510070006 | 49 | 123 | 3.5 | 4.3 | 0.00 | 0.00 | 0.00 | 88 | 1011.3 |
| 20260510064503 | 51 | 130 | 3.5 | 5.2 | 0.00 | 0.00 | 0.00 | 84 | 1011.3 |
| 20260510063503 | 51 | 112 | 3.5 | 6.1 | 0.00 | 0.00 | 0.00 | 82 | 1011.3 |
| 20260510060457 | 51 | 68 | 4.3 | 8.7 | 0.00 | 0.00 | 0.00 | 81 | 1011.0 |
| 20260510055956 | 51 | 77 | 5.2 | 9.6 | 0.00 | 0.00 | 0.00 | 81 | 1011.0 |
| 20260510055459 | 51 | 6 | 1.7 | 9.6 | 0.00 | 0.00 | 0.00 | 82 | 1011.0 |
| 20260510053955 | 52 | 347 | 2.6 | 11.3 | 0.00 | 0.00 | 0.00 | 84 | 1010.7 |
| 20260510040435 | 59 | 314 | 4.3 | 5.2 | 0.00 | 0.00 | 0.00 | 77 | 1008.5 |
| 20260510033930 | 59 | 344 | 1.7 | 5.2 | 0.00 | 0.00 | 0.00 | 79 | 1008.2 |
| 20260510033431 | 59 | 302 | 1.7 | 5.2 | 0.00 | 0.00 | 0.00 | 79 | 1008.2 |
| 20260510031413 | 59 | 329 | 2.6 | 5.2 | 0.00 | 0.00 | 0.00 | 79 | 1007.8 |
| 20260510025911 | 59 | 305 | 1.7 | 5.2 | 0.00 | 0.00 | 0.00 | 78 | 1008.2 |
| 20260510021915 | 60 | 322 | 4.3 | 7.8 | 0.00 | 0.00 | 0.00 | 74 | 1007.8 |
| 20260510021419 | 60 | 279 | 5.2 | 7.8 | 0.00 | 0.00 | 0.00 | 75 | 1007.8 |
| 20260510020915 | 60 | 282 | 5.2 | 7.8 | 0.00 | 0.00 | 0.00 | 75 | 1007.8 |
| 20260510013911 | 59 | 303 | 3.5 | 7.8 | 0.00 | 0.00 | 0.00 | 81 | 1007.8 |
| 20260510011406 | 59 | 309 | 3.5 | 8.7 | 0.00 | 0.00 | 0.00 | 82 | 1007.2 |
| 20260510004902 | 59 | 296 | 5.2 | 7.8 | 0.00 | 0.00 | 0.00 | 83 | 1007.2 |
| 20260509225841 | 54 | 319 | 5.2 | 14.8 | 0.00 | 0.00 | 0.00 | 94 | 1007.5 |
| 20260509224841 | 54 | 299 | 7.0 | 19.1 | 0.00 | 0.00 | 0.00 | 93 | 1007.8 |
| 20260509223628 | 55 | 309 | 8.7 | 26.1 | 0.00 | 0.00 | 0.00 | 91 | 1027.5 |
| 20260509222626 | 60 | 282 | 5.2 | 29.5 | 0.00 | 0.00 | 0.00 | 70 | 1030.3 |